Home   Weather   Pratteln   Past weeks

Flag for Switzerland Past Weather in Pratteln, Basel-Land, Switzerland — Yesterday and Last 2 Weeks

Now
79 °F

Passing clouds.


Feels Like: 79 °F
Forecast: 52 / 71 °F
Wind: 9 mph from West

Location: Bale-Mulhouse

Current Time: Sep 29, 2016 at 5:24:17 PM

Latest Report: Sep 29, 2016 at 5:00 PM


Visibility: N/A

Pressure: 30.12 "Hg

Humidity: 42%

Dew Point: 54 °F

Location of PrattelnLocation

Past Weather in Pratteln — Graph

°F

Pratteln Temperature Yesterday

Maximum temperature yesterday: 75 °F (at 2:30 PM)
Minimum temperature yesterday: 48 °F (at 2:30 AM)
Average temperature yesterday: 60 °F

High & Low Weather Summary for the Past Weeks

 TemperatureHumidityPressure
High86 °F (Sep 14, 4:00 PM)100% (Sep 15, 4:00 AM)30.45 "Hg (Sep 15, 4:00 AM)
Low41 °F (Sep 24, 7:30 AM)38% (Sep 14, 4:00 PM)29.77 "Hg (Sep 15, 3:00 AM)
Average60 °F81%30.12 "Hg
* Reported Sep 14 4:00 PM — Sep 29 4:00 PM, Pratteln, Weather by CustomWeather, © 2016

Note: Actual official high and low records may vary slightly from our data, if they occured in-between our weather recording intervals... More about our weather records

Advertising

Pratteln Weather History for the Previous 24 Hours

Scroll right to see more
 ConditionsComfort  
Time TempWeatherWind HumidityBarometerVisibility
4:00 PM
Thu, Sep 29
79 °FPassing clouds.8 mph42%30.15 "HgN/A
3:30 PM79 °FPassing clouds.10 mph42%30.15 "HgN/A
3:06 PM79 °FPassing clouds.8 mph42%30.15 "HgN/A
2:30 PM79 °FPassing clouds.5 mph45%30.18 "HgN/A
2:00 PM77 °FPassing clouds.3 mph47%30.18 "HgN/A
1:30 PM75 °FPassing clouds.3 mph50%30.21 "HgN/A
1:00 PM73 °FSunny.2 mph53%30.24 "Hg10 mi
12:30 PM72 °FPassing clouds.5 mph57%30.24 "HgN/A
12:00 PM70 °FPassing clouds.6 mph60%30.24 "HgN/A
11:30 AM68 °FPassing clouds.6 mph64%30.27 "HgN/A
11:00 AM66 °FPassing clouds.6 mph68%30.27 "HgN/A
10:30 AM63 °FPassing clouds.6 mph77%30.27 "HgN/A
10:00 AM61 °FPassing clouds.6 mph83%30.27 "HgN/A
9:30 AM59 °FPassing clouds.6 mph82%30.27 "HgN/A
9:00 AM57 °FPassing clouds.5 mph88%30.30 "HgN/A
8:30 AM55 °FPassing clouds.3 mph94%30.30 "HgN/A
8:00 AM54 °FPassing clouds.6 mph94%30.30 "HgN/A
7:30 AM52 °FSunny.5 mph94%30.30 "Hg10 mi
7:00 AM52 °FClear.6 mph100%30.30 "Hg6 mi
6:30 AM52 °FClear.6 mph100%30.30 "Hg6 mi
6:00 AM54 °FClear.5 mph94%30.30 "Hg6 mi
5:30 AM54 °FClear.6 mph94%30.30 "Hg6 mi
5:00 AM54 °FClear.6 mph94%30.33 "Hg6 mi
4:30 AM54 °FClear.5 mph94%30.33 "Hg6 mi
4:00 AM54 °FClear.5 mph94%30.33 "Hg10 mi
3:30 AM54 °FClear.6 mph100%30.33 "Hg10 mi
3:00 AM54 °FClear.3 mph94%30.36 "Hg10 mi
2:30 AM54 °FClear.3 mph88%30.36 "Hg10 mi
2:00 AM54 °FPassing clouds.5 mph100%30.36 "HgN/A
1:30 AM52 °FClear.3 mph94%30.36 "Hg10 mi
1:00 AM52 °FClear.No wind94%30.36 "Hg10 mi
12:30 AM52 °FClear.2 mph94%30.39 "Hg10 mi
12:00 AM54 °FClear.2 mph94%30.39 "Hg10 mi
11:30 PM
Wed, Sep 28
54 °FClear.No wind88%30.39 "Hg10 mi
11:00 PM55 °FClear.2 mph94%30.39 "Hg10 mi
10:30 PM55 °FClear.1 mph88%30.39 "Hg10 mi
10:00 PM57 °FClear.2 mph88%30.39 "Hg10 mi
9:30 PM57 °FClear.2 mph82%30.39 "Hg10 mi
9:00 PM59 °FClear.3 mph82%30.39 "Hg10 mi
8:30 PM59 °FClear.5 mph77%30.39 "Hg10 mi
8:00 PM61 °FClear.1 mph77%30.39 "Hg10 mi
7:30 PM64 °FClear.1 mph68%30.39 "Hg10 mi
7:00 PM68 °FSunny.3 mph60%30.39 "Hg10 mi
6:30 PM70 °FSunny.5 mph53%30.39 "Hg10 mi
6:00 PM73 °FSunny.9 mph47%30.39 "Hg10 mi
5:30 PM73 °FPassing clouds.8 mph50%30.39 "HgN/A
5:00 PM73 °FPartly sunny.9 mph53%30.36 "HgN/A
Weather by CustomWeather, © 2016

See weather overviewHow to use our weather pages